Powrót do katalogu

BLOCK DM-SL DEB

LostHEO
NORAD 34837·DEBRIS· XX

Wystrzelony Apr 20, 2009 z Sea Launch Platform

Loading…

Następne Przeloty (najbliższe 24 godziny)

TLE

NieaktualneSource: Space-Track

Epoka: May 7, 2009, 07:51 UTC

1 34837U 09020D   09127.32770698  .00000000  00000-0  10000-3 0  9991
2 34837 000.0612 166.2165 4753000 147.6852 275.5734 01.81486641   300

Śledź BLOCK DM-SL DEB w czasie rzeczywistym z AllMySat

Download on the App Store